Location: Newark
(37.3167°N, 13.4667°E)
Time: 06:41:11
(UTC+00:00)

Tiangong 2 - Visible Passes

Search period start: 18 July 2019 00:00
Search period end: 28 July 2019 00:00
Orbit: 378 x 386 km, 42.8° (Epoch: 17 July)

Date Brightness Start Highest point End Pass type
(mag) Time Alt. Az. Time Alt. Az. Time Alt. Az.
18 Jul 1.5 20:15:41 10° WNW 20:18:46 54° NNE 20:19:09 50° NE visible
19 Jul 2.2 19:15:23 10° WNW 19:18:20 37° NNE 19:21:17 10° E visible
19 Jul 3.1 20:52:02 10° WNW 20:53:28 23° W 20:53:28 23° W visible
20 Jul 0.9 19:51:38 10° WNW 19:54:46 87° NNE 19:55:41 43° ESE visible
21 Jul 1.6 18:51:19 10° WNW 18:54:23 52° NNE 18:57:26 10° E visible
21 Jul 2.9 20:28:14 10° W 20:30:04 23° WSW 20:30:04 23° WSW visible
22 Jul 1.4 19:27:38 10° WNW 19:30:41 52° SSW 19:32:20 23° SE visible
23 Jul 3.3 20:04:49 10° WSW 20:06:42 15° SW 20:06:48 15° SW visible
24 Jul 2.5 19:03:46 10° W 19:06:31 28° SSW 19:09:11 10° SSE visible
